Zurück zum Katalog

STARLINK-32016

AktivKommunikationVLEO
NORAD 60096·PAYLOAD·🇺🇸 United States

Gestartet Jun 23, 2024 von Cape Canaveral Space Force Station

Loading…

Nächste Überflüge (nächste 24 Stunden)

TLE

AktuellSource: CelesTrak SupGP

Epoche: Sep 14, 2026, 15:18 UTC

1 60096C 24117F   26257.63798611 -.00022843  00000+0 -67478-3 0  2571
2 60096  53.1570 237.3386 0001296  81.6993 347.3490 15.34407881    12

Verfolge STARLINK-32016 in Echtzeit mit AllMySat

Download on the App Store